Showing default

IRIDIUM 104, 41922

Orbit data source: Space-Track

IRIDIUM 104, 41922 is a payload satellite owned by Iridium (US) in LEO that was launched on Sat, 14 Jan 2017 UTC via an FALCON 9 launch vehicle from the Air Force Western Test Range (AFWTR). Payload-class satellites include a variety of spacecraft equipped with specific instruments for various scientific and technological missions. These include communications satellites like Starlink; space stations such as the ISS; scientific satellites like the Hubble; Earth observation satellites from companies like Planet Labs, Umbra, and HawkEye 360; GPS; miniature CubeSats for education and research; and military/defense satellites.

Loading next visibility...
Identifier
41922, 2017-003F
Orbit
LEO
Country
Flag of USUS
Related business
Manufacturer
OATK SSG Gilbert
Mission
Operational Commercial Communications
Bus & Motor
ELITEBUS, Unknown motor
Mass
860 kg wet, 700 kg dry
Launch date (UTC)
2017-01-14 (9 years ago)
Launch vehicle
FALCON 9
Launch site
Air Force Western Test Range (AFWTR)
Object type
Payload
Rocket body
Debris
Shape & HBR
Trap Box + 2 Pan, 4.8 m
Radar Cross Section
10.154 m², Large (>1 m²)

Expand to show TLE details & history
Last TLE update: 11 hours ago

TLE from 11 hours ago
0 IRIDIUM 104
1 41922U 17003F   25302.41539706  .00000027  00000-0  25027-5 0  9996
2 41922  86.4028 184.8772 0002454  83.2896 276.8579 14.34217867460193
Epoch: 2025-10-29T09:58Z
TLE epoch observation values (Epoch: 2025-10-29T09:58:10.305Z)
Latitude
-0.00006°
Longitude
-2.6546°
Altitude
780.508 km
Speed
7.464 km/s
True Right ascension
12h 19m 30s
True Declination
0° 00' 00"
Sunlit
Object was in daylight at epoch
Visualization orbit readout
Latitude
Unknown
Longitude
Unknown
Altitude
Unknown
Speed
Unknown
Apparent Right ascension
Unknown
Apparent Declination
Unknown
Sunlit
N/A
Visualization observer readout
Local Sidereal Time
16:02:29
Azimuth
Unknown
Elevation
Unknown
Doppler factor
Unknown
Orbital elements
Apogee altitude
776.386 km
Perigee altitude
772.876 km
Semi-major axis
7,152.768 km
Eccentricity
0.00025
Inclination
86.4028°
RAAN
184.8772°
Arg. of periapsis
83.2896°
True anomaly
276.82998°
Mean anomaly
276.8579°
Eccentric anomaly
276.84394°
Mean motion
3.58783 °/min
Orbital period
100.34 mins
BSTAR
0.0000025027
Loading maneuver chart data...
Computing Atmospheric mass density...
Loading historical data...
Loading historical data...
Loading historical data...
Loading historical data...
Loading historical data...
Loading historical data...
Loading historical data...

Documentation

Showing up to 5 results
|